Rbgn^[z[y[W
メイン
   新天体発見情報
     Comet P/2022 E1 (Christensen)
投稿するにはまず登録を

スレッド表示 | 古いものから 前のトピック | 次のトピック | 下へ
投稿者 スレッド
佐藤裕久
投稿日時: 2022-4-27 8:06
モデレータ
登録日: 2005-6-12
居住地: 日本
投稿: 2559
オンライン
Comet P/2022 E1 = 2005 N11 = 2015 PO210 (PANSTARRS-Christensen)

中野主一氏 (中央局)は、2022年3月2日-4月13日の55個の観測によるP/2022 E1 (CBET 5107
参照)の2体軌道を使用し、小惑星センターのファイルにある2005年と2006年の3組の観測が
互いにリンクされていないことに気づき、P/2022 E1と同定した。2005年7月5日と2006年5月
23日の観測は、Mt Lemmon サーベイの1.5-m 反射望遠鏡によるもの、2006年6月17日の観測
は、Kitt PeakにあるSteward天文台のSpacewatch 0.9-m f/3 反射望遠鏡によるもので、
天体は、3夜とも小惑星のような姿をしていたものと思われる。
2005年と2006年の観測の残差は、中野氏の2022年軌道要素(非摂動)から、赤経+0.27度、赤緯
-0.04度の残差があった。それに対応してDelta(T) = +1.06 daysを補正した。
中野氏はR. Weryk (西オンタリオ大学,物理および天文学科)に連絡し、2005-2006年と2022年
の66個の観測(平均残差0".3)を結合した新しい軌道要素を使い、Pan-STARRSによる観測の可能
性を探ってもらった。
Werykは、以前から指摘されていた天体が、2015年8月10日と11日、HaleakalaにあるPan-STARRS1
1.8-m Ritchey-Chretien 反射望遠鏡で観測されたことに気づいた(MPS 620107に発表された時、
015 PO210の小惑星符号が与えられた)。この天体もP/2022 E1と同定された。前回の発表により、
この天体は"PANSTARRS "という名前がつけられた。
Werykはまた、MPCのファイルにある2014年5月26日一夜のPan-STARRS1観測と2014年6月22日一夜
Mt Lemmonの観測を同定した。
彗星名はIAU小天体命名委員会ワーキンググループによってP/2022 E1 (PANSTARRS-Christensen)
と改名された。

同定観測は次のとおり、

     2005 UT             R.A. (2000) Decl.       Mag.   Observatory
     July  5.20631   13 36 17.38   +12 08 57.5   21.4   Mt Lemmon
           5.20836   13 36 17.42   +12 08 54.7   21.1   "
           5.21042   13 36 17.49   +12 08 54.7   21.4   "
           5.21252   13 36 17.64   +12 08 52.5   22.8   "

     2006 UT             R.A. (2000) Decl.       Mag.   Observatory
     May  23.42764   20 20 37.53   -18 13 43.0   20.4   Mt Lemmon
          23.43258   20 20 37.57   -18 13 44.5   21.3   "
          23.43752   20 20 37.68   -18 13 45.5   20.4   "
          23.44260   20 20 37.68   -18 13 46.8   20.6   "
     June 17.41750   20 19 14.54   -20 38 49.8   20.7   Steward
          17.43486   20 19 14.16   -20 38 57.6   20.8   "
          17.45214   20 19 13.80   -20 39 05.0   20.6   "

     2014 UT             R.A. (2000) Decl.       Mag.   Observatory
     May  26.43540   17 44 20.22   - 8 08 50.2   20.4   Pan-STARRS 1
          26.45013   17 44 19.67   - 8 08 53.1   20.4   "
          26.47967   17 44 18.56   - 8 08 58.8   20.2   "
     June 22.31636   17 25 18.57   -10 18 12.1   19.7   Mt Lemmon
          22.32155   17 25 18.33   -10 18 14.2   19.4   "
          22.32673   17 25 18.11   -10 18 16.0   19.6   "

     2015 UT             R.A. (2000) Decl.       Mag.   Observatory
     Aug. 10.51769   23 35 20.67   -24 27 40.4   21.7   Pan-STARRS 1
          10.52741   23 35 20.40   -24 27 44.8   21.8   "
          10.53703   23 35 20.16   -24 27 49.6   21.8   "
          10.54674   23 35 19.93   -24 27 54.0   21.6   "
          11.52146   23 34 56.58   -24 35 35.9   21.6   "
          11.53116   23 34 56.32   -24 35 40.5   21.6   "
          11.54084   23 34 56.06   -24 35 45.1   21.5   "
          11.55054   23 34 55.82   -24 35 49.7   21.6   "

MPCの連結軌道要素と位置推算表は次のとおり、

Orbital elements:
    P/2022 E1 (PANSTARRS-Christensen)                                           
Epoch 2014 May 23.0 TT = JDT 2456800.5                                          
T 2014 May 10.59679 TT                                  Rudenko                 
q   2.9624675            (2000.0)            P               Q                  
n   0.11722639     Peri.  144.76069     -0.24671227     +0.91423500             
a   4.1347804      Node   109.02647     -0.94874655     -0.16026236             
e   0.2835248      Incl.   19.87620     -0.19751720     -0.37214291             
P   8.41                                                                        
From 72 observations 2014 May 26-2022 Apr. 18, mean residual 0".3.              
                                                                                
    P/2022 E1 (PANSTARRS-Christensen)                                           
Epoch 2022 Jan. 21.0 TT = JDT 2459600.5                                         
T 2022 Oct. 10.32333 TT                                 Rudenko                 
q   2.9555493            (2000.0)            P               Q                  
n   0.11744269     Peri.  145.16071     -0.24169065     +0.91546667             
a   4.1297020      Node   108.94226     -0.94954303     -0.15483254             
e   0.2843190      Incl.   19.88566     -0.19988413     -0.37141307             
P   8.39                                                                        
From 57 observations 2022 Mar. 2-Apr. 18, mean residual 0".3.                   
                                                                                
    P/2022 E1 (PANSTARRS-Christensen)                                           
Epoch 2022 Oct. 28.0 TT = JDT 2459880.5                                         
T 2022 Oct. 10.16697 TT                                 Rudenko                 
q   2.9561783            (2000.0)            P               Q                  
n   0.11752371     Peri.  145.11320     -0.24241856     +0.91527014             
a   4.1278038      Node   108.94395     -0.94942347     -0.15559135             
e   0.2838375      Incl.   19.88661     -0.19957032     -0.37158028             
P   8.39                                                                        
From 72 observations 2014 May 26-2022 Apr. 18, mean residual 0".3.              
                                                                                
    P/2022 E1 (PANSTARRS-Christensen)                                           
Epoch 2031 Feb. 23.0 TT = JDT 2462920.5                                         
T 2031 Feb. 18.25739 TT                                 Rudenko                 
q   2.9573279            (2000.0)            P               Q                  
n   0.11729014     Peri.  144.58074     -0.25214857     +0.91253595             
a   4.1332822      Node   108.86750     -0.94765368     -0.16548989             
e   0.2845086      Incl.   19.89569     -0.19589182     -0.37402038             
P   8.40                                                                        
From 72 observations 2014 May 26-2022 Apr. 18, mean residual 0".3.              
                                                                                
    P/2022 E1 (PANSTARRS-Christensen)                                           
Epoch 2022 Jan. 21.0 TT = JDT 2459600.5                                         
T 2022 Oct. 10.03611 TT                                 Rudenko                 
q   2.9562586            (2000.0)            P               Q                  
n   0.11743084     Peri.  145.08112     -0.24281647     +0.91517736             
a   4.1299800      Node   108.95114     -0.94936023     -0.15602325             
e   0.2841954      Incl.   19.88518     -0.19938736     -0.37162769             
P   8.39                                                                        
From 72 observations 2014 May 26-2022 Apr. 18, mean residual 0".3.              
                                                                                
    P/2022 E1 (PANSTARRS-Christensen)                                           
Epoch 2022 Jan. 21.0 TT = JDT 2459600.5                                         
T 2022 Oct. 10.32407 TT                                 Rudenko                 
q   2.9555049            (2000.0)            P               Q                  
n   0.11744702     Peri.  145.16250     -0.24167952     +0.91546905             
a   4.1296006      Node   108.94122     -0.94954374     -0.15481834             
e   0.2843122      Incl.   19.88563     -0.19989422     -0.37141311             
P   8.39                                                                        
From 54 observations 2022 Mar. 2-Apr. 13, mean residual 0".3.                   
                                                                                
Ephemeris:
Date    TT    R. A. (2000) Decl.     Delta      r    Elong.  Phase   m1
2022 03 26    15 22 30.6 +08 23 49   2.3672  3.1330   132.9    13.5  20.3
...
2022 04 10    15 18 26.7 +09 42 04   2.2401  3.1086   144.3    10.8  20.2
...
2022 04 18    15 14 34.3 +10 16 23   2.1921  3.0962   149.0     9.6  20.1
...
2022 04 24    15 11 03.3 +10 36 30   2.1658  3.0872   151.5     8.9  20.1
2022 04 25    15 10 25.6 +10 39 18   2.1623  3.0858   151.8     8.9  20.1
2022 04 26    15 09 47.3 +10 41 56   2.1590  3.0843   152.1     8.8  20.1
...
2022 05 02    15 05 47.2 +10 53 47   2.1446  3.0757   152.8     8.6  20.0
...
2022 05 10    15 00 11.7 +10 58 12   2.1391  3.0645   151.5     9.0  20.0
...
2022 05 25    14 50 11.2 +10 28 29   2.1701  3.0450   143.6    11.4  20.0

(MPEC 2022-H49, CBET 5117)

佐藤裕久
投稿日時: 2022-3-19 15:30
モデレータ
登録日: 2005-6-12
居住地: 日本
投稿: 2559
オンライン
Comet P/2022 E1 (Christensen)

Eric J. Christensen (アリゾナ大学)の通報によると、3月2日、Mt Lemmonの1.5-m 反射
望遠鏡で得た、30-秒のCCD露出から彗星を発見した。
4枚の合成画像では、集光した5"のコマが見え、p.a. 290°に向かって10"の尾があった。
小惑星センターのPCCP webpageに公表後、L. Buzzi (Varese,イタリア,3月7.1日UT, 60-秒
露出90枚のスタック, 0.84-m f/3.5 反射望遠鏡, 観測はA. Alettiと彼: 中程度に集光した
幅6"のコマとp.a. 290°に向かってかすかに伸びている)、佐藤英貴氏(東京都文京区,3月
8.5日, 120-秒露出10枚のスタック,0.43-m f/6.8 アストログラフ, Mayhill近郊, ニュー
メキシコ州,  米国,遠隔操作: 強く集光した6"のぼやけたコマが見えるが尾はない。5".7の
円形範囲で測定した光度は20.5等であった)や池村俊彦氏(愛知県名古屋市, 3月8.7日, 60-秒
露出25枚のスタック, 0.38-m f/4.2 反射望遠鏡, 新城観測所, 測定・報告は佐藤裕久:中程
度に集光した約6"のコマが見えるが、尾はない。全光度は20.2等)らCCD位置観測者によって
彗星状と観測された。

彗星機能の報告は次のとおり、

OC   Date        Reporter           Coma    Tail    PA          Exposures
I52  2022-03-02  D. C. Fuls         6        8"     280
204  2022-03-07  A. Aletti          6"                          90x60s
H06  2022-03-08  H. Sato            6"                          10x120s
Q11  2022-03-08  H. Sato            6"                          25x60s
F52  2022-03-10  R. Weryk           0".1     8"     280         4x45s

発見位置は次のとおり、

